Time,TemperatureF,DewpointF,PressureIn,WindDirection,WindDirectionDegrees,WindSpeedMPH,WindSpeedGustMPH,Humidity,HourlyPrecipIn,Conditions,Clouds,dailyrainin,SoftwareType,DateUTC
2013-06-24 00:01:00,72.5,60.9,0.00,SW,226,2.7,3.6,67,0.00,,---,0.00,VWS V13.01,2013-06-24 04:01:00,
2013-06-24 00:02:00,72.5,60.9,0.00,West,265,3.1,4.9,67,0.00,,---,0.00,VWS V13.01,2013-06-24 04:02:00,
2013-06-24 00:03:00,72.5,60.9,0.00,WSW,238,3.1,4.9,67,0.00,,---,0.00,VWS V13.01,2013-06-24 04:03:00,
2013-06-24 00:05:00,72.5,60.5,0.00,SW,220,3.1,5.4,66,0.00,,---,0.00,VWS V13.01,2013-06-24 04:05:00,
2013-06-24 00:10:00,72.9,60.4,0.00,West,264,4.0,4.0,65,0.00,,---,0.00,VWS V13.01,2013-06-24 04:10:00,
2013-06-24 00:15:00,72.9,60.4,0.00,WSW,255,3.1,5.8,65,0.00,,---,0.00,VWS V13.01,2013-06-24 04:15:00,
2013-06-24 00:20:00,73.0,60.6,0.00,WSW,241,3.1,7.6,65,0.00,,---,0.00,VWS V13.01,2013-06-24 04:20:00,
2013-06-24 00:25:00,73.2,60.8,0.00,WSW,255,3.1,7.6,65,0.00,,---,0.00,VWS V13.01,2013-06-24 04:25:00,
2013-06-24 00:30:00,73.4,60.0,0.00,West,263,3.6,7.6,63,0.00,,---,0.00,VWS V13.01,2013-06-24 04:30:00,
2013-06-24 00:35:00,73.6,60.2,0.00,WSW,243,3.6,7.6,63,0.00,,---,0.00,VWS V13.01,2013-06-24 04:35:00,
2013-06-24 00:40:00,73.8,60.4,0.00,WSW,237,3.1,4.0,63,0.00,,---,0.00,VWS V13.01,2013-06-24 04:40:00,
2013-06-24 00:45:00,73.9,60.6,0.00,SSW,212,3.1,6.3,63,0.00,,---,0.00,VWS V13.01,2013-06-24 04:45:00,
2013-06-24 00:50:00,73.9,60.6,0.00,WSW,237,4.9,5.4,63,0.00,,---,0.00,VWS V13.01,2013-06-24 04:50:00,
2013-06-24 00:55:00,73.9,60.1,0.00,SW,233,6.3,7.6,62,0.00,,---,0.00,VWS V13.01,2013-06-24 04:55:00,
2013-06-24 01:01:00,74.1,60.3,0.00,SW,221,3.1,3.1,62,0.00,,---,0.00,VWS V13.01,2013-06-24 05:01:00,
2013-06-24 01:06:00,74.1,60.3,0.00,SW,215,4.9,10.5,62,0.00,,---,0.00,VWS V13.01,2013-06-24 05:06:00,
2013-06-24 01:11:00,74.1,60.3,0.00,WSW,250,4.0,4.9,62,0.00,,---,0.00,VWS V13.01,2013-06-24 05:11:00,
2013-06-24 01:16:00,73.9,60.1,0.00,WSW,240,2.7,4.9,62,0.00,,---,0.00,VWS V13.01,2013-06-24 05:16:00,
2013-06-24 01:21:00,73.9,60.6,0.00,WSW,247,2.7,4.9,63,0.00,,---,0.00,VWS V13.01,2013-06-24 05:21:00,
2013-06-24 01:26:00,73.9,60.6,0.00,WSW,243,3.1,5.8,63,0.00,,---,0.00,VWS V13.01,2013-06-24 05:26:00,
2013-06-24 01:31:00,73.8,60.4,0.00,West,261,3.1,6.3,63,0.00,,---,0.00,VWS V13.01,2013-06-24 05:31:00,
2013-06-24 01:36:00,73.6,60.7,0.00,WSW,256,0.0,6.3,64,0.00,,---,0.00,VWS V13.01,2013-06-24 05:36:00,
2013-06-24 01:41:00,73.6,60.7,0.00,SW,226,8.7,9.2,64,0.00,,---,0.00,VWS V13.01,2013-06-24 05:41:00,
2013-06-24 01:46:00,73.4,60.5,0.00,WSW,252,6.3,9.2,64,0.00,,---,0.00,VWS V13.01,2013-06-24 05:46:00,
2013-06-24 01:52:00,73.4,60.5,0.00,West,279,5.8,6.3,64,0.00,,---,0.00,VWS V13.01,2013-06-24 05:52:00,
2013-06-24 01:57:00,73.2,60.8,0.00,West,259,4.0,6.3,65,0.00,,---,0.00,VWS V13.01,2013-06-24 05:57:00,
2013-06-24 02:03:00,73.0,60.6,0.00,SW,229,3.6,5.8,65,0.00,,---,0.00,VWS V13.01,2013-06-24 06:03:00,
2013-06-24 02:08:00,72.9,60.8,0.00,WSW,255,2.2,5.8,66,0.00,,---,0.00,VWS V13.01,2013-06-24 06:08:00,
2013-06-24 02:13:00,72.9,60.8,0.00,WSW,251,2.7,5.4,66,0.00,,---,0.00,VWS V13.01,2013-06-24 06:13:00,
2013-06-24 02:19:00,72.7,60.7,0.00,West,260,4.0,5.8,66,0.00,,---,0.00,VWS V13.01,2013-06-24 06:19:00,
2013-06-24 02:25:00,72.7,60.7,0.00,WSW,241,2.7,6.3,66,0.00,,---,0.00,VWS V13.01,2013-06-24 06:25:00,
2013-06-24 02:30:00,72.7,60.7,0.00,West,262,0.0,0.0,66,0.00,,---,0.00,VWS V13.01,2013-06-24 06:30:00,
2013-06-24 02:36:00,72.5,60.9,0.00,WSW,243,0.0,4.5,67,0.00,,---,0.00,VWS V13.01,2013-06-24 06:36:00,
2013-06-24 02:41:00,72.5,60.9,0.00,West,259,0.0,3.1,67,0.00,,---,0.00,VWS V13.01,2013-06-24 06:41:00,
2013-06-24 02:48:00,72.3,60.8,0.00,WSW,244,0.0,6.3,67,0.00,,---,0.00,VWS V13.01,2013-06-24 06:48:00,
2013-06-24 02:54:00,72.0,60.8,0.00,WSW,243,0.0,3.6,68,0.00,,---,0.00,VWS V13.01,2013-06-24 06:54:00,
2013-06-24 02:59:00,71.8,60.7,0.00,WSW,246,0.0,3.6,68,0.00,,---,0.00,VWS V13.01,2013-06-24 06:59:00,
2013-06-24 03:04:00,71.6,60.9,0.00,WSW,250,0.0,0.0,69,0.00,,---,0.00,VWS V13.01,2013-06-24 07:04:00,
2013-06-24 03:09:00,71.2,61.0,0.00,WSW,250,0.0,0.0,70,0.00,,---,0.00,VWS V13.01,2013-06-24 07:09:00,
2013-06-24 03:14:00,71.1,61.2,0.00,WSW,245,0.0,0.0,71,0.00,,---,0.00,VWS V13.01,2013-06-24 07:14:00,
2013-06-24 03:19:00,70.7,60.8,0.00,WSW,243,0.0,4.0,71,0.00,,---,0.00,VWS V13.01,2013-06-24 07:19:00,
2013-06-24 03:24:00,70.7,61.2,0.00,WSW,244,2.2,4.0,72,0.00,,---,0.00,VWS V13.01,2013-06-24 07:24:00,
2013-06-24 03:30:00,70.5,61.1,0.00,WSW,253,0.0,4.0,72,0.00,,---,0.00,VWS V13.01,2013-06-24 07:30:00,
2013-06-24 03:35:00,70.5,61.5,0.00,West,263,0.0,4.0,73,0.00,,---,0.00,VWS V13.01,2013-06-24 07:35:00,
2013-06-24 03:41:00,70.5,61.5,0.00,SW,235,3.1,3.6,73,0.00,,---,0.00,VWS V13.01,2013-06-24 07:41:00,
2013-06-24 03:46:00,70.7,61.6,0.00,WSW,241,2.7,6.3,73,0.00,,---,0.00,VWS V13.01,2013-06-24 07:46:00,
2013-06-24 03:52:00,70.7,61.2,0.00,WSW,244,0.0,4.9,72,0.00,,---,0.00,VWS V13.01,2013-06-24 07:52:00,
2013-06-24 03:57:00,70.9,61.4,0.00,WSW,237,0.0,4.9,72,0.00,,---,0.00,VWS V13.01,2013-06-24 07:57:00,
2013-06-24 04:02:00,70.9,61.8,0.00,SW,236,2.7,4.0,73,0.00,,---,0.00,VWS V13.01,2013-06-24 08:02:00,
2013-06-24 04:08:00,70.9,61.4,0.00,WSW,253,3.6,4.0,72,0.00,,---,0.00,VWS V13.01,2013-06-24 08:08:00,
2013-06-24 04:14:00,71.1,61.6,0.00,WSW,255,0.0,3.1,72,0.00,,---,0.00,VWS V13.01,2013-06-24 08:14:00,
2013-06-24 04:19:00,71.1,62.0,0.00,WSW,245,0.0,5.8,73,0.00,,---,0.00,VWS V13.01,2013-06-24 08:19:00,
2013-06-24 04:25:00,71.1,62.0,0.00,West,262,3.1,6.3,73,0.00,,---,0.00,VWS V13.01,2013-06-24 08:25:00,
2013-06-24 04:30:00,71.2,61.8,0.00,WSW,245,0.0,0.0,72,0.00,,---,0.00,VWS V13.01,2013-06-24 08:30:00,
2013-06-24 04:35:00,71.4,61.9,0.00,West,261,2.2,5.4,72,0.00,,---,0.00,VWS V13.01,2013-06-24 08:35:00,
2013-06-24 04:40:00,71.6,61.7,0.00,WSW,247,2.7,2.7,71,0.00,,---,0.00,VWS V13.01,2013-06-24 08:40:00,
2013-06-24 04:45:00,71.8,61.5,0.00,WSW,243,2.7,8.1,70,0.00,,---,0.00,VWS V13.01,2013-06-24 08:45:00,
2013-06-24 04:50:00,71.8,61.5,0.00,SW,216,4.9,4.9,70,0.00,,---,0.00,VWS V13.01,2013-06-24 08:50:00,
2013-06-24 04:56:00,72.0,61.7,0.00,WSW,248,2.2,5.4,70,0.00,,---,0.00,VWS V13.01,2013-06-24 08:56:00,
2013-06-24 05:02:00,72.0,61.7,0.00,SSW,212,3.1,4.0,70,0.00,,---,0.00,VWS V13.01,2013-06-24 09:02:00,
2013-06-24 05:08:00,72.0,61.7,0.00,SW,236,4.9,5.4,70,0.00,,---,0.00,VWS V13.01,2013-06-24 09:08:00,
2013-06-24 05:13:00,72.0,61.7,0.00,WSW,244,3.1,5.4,70,0.00,,---,0.00,VWS V13.01,2013-06-24 09:13:00,
2013-06-24 05:18:00,72.0,61.7,0.00,WSW,237,2.7,5.4,70,0.00,,---,0.00,VWS V13.01,2013-06-24 09:18:00,
2013-06-24 05:25:00,72.0,61.7,0.00,SW,227,3.1,6.3,70,0.00,,---,0.00,VWS V13.01,2013-06-24 09:25:00,
2013-06-24 05:30:00,71.8,61.5,0.00,SW,222,3.1,3.1,70,0.00,,---,0.00,VWS V13.01,2013-06-24 09:30:00,
2013-06-24 05:36:00,71.8,61.9,0.00,WSW,253,4.9,7.2,71,0.00,,---,0.00,VWS V13.01,2013-06-24 09:36:00,
2013-06-24 05:42:00,71.8,61.9,0.00,SW,215,3.6,5.4,71,0.00,,---,0.00,VWS V13.01,2013-06-24 09:42:00,
2013-06-24 05:47:00,71.6,61.7,0.00,West,265,2.7,5.4,71,0.00,,---,0.00,VWS V13.01,2013-06-24 09:47:00,
2013-06-24 05:53:00,71.6,61.7,0.00,SW,219,2.2,5.4,71,0.00,,---,0.00,VWS V13.01,2013-06-24 09:53:00,
2013-06-24 05:58:00,71.6,61.7,0.00,WSW,249,2.2,5.8,71,0.00,,---,0.00,VWS V13.01,2013-06-24 09:58:00,
2013-06-24 06:03:00,71.6,61.7,0.00,WSW,252,4.0,6.3,71,0.00,,---,0.00,VWS V13.01,2013-06-24 10:03:00,
2013-06-24 06:09:00,72.3,62.4,0.00,WSW,247,3.6,6.3,71,0.00,,---,0.00,VWS V13.01,2013-06-24 10:09:00,
2013-06-24 06:15:00,73.2,62.5,0.00,WSW,247,3.6,5.8,69,0.00,,---,0.00,VWS V13.01,2013-06-24 10:15:00,
2013-06-24 06:20:00,74.5,62.8,0.00,SW,227,3.1,3.6,67,0.00,,---,0.00,VWS V13.01,2013-06-24 10:20:00,
2013-06-24 06:25:00,73.9,62.3,0.00,WSW,257,0.0,5.4,67,0.00,,---,0.00,VWS V13.01,2013-06-24 10:25:00,
2013-06-24 06:30:00,74.1,62.5,0.00,SW,221,3.1,3.6,67,0.00,,---,0.00,VWS V13.01,2013-06-24 10:30:00,
2013-06-24 06:36:00,74.8,63.2,0.00,West,260,5.4,5.4,67,0.00,,---,0.00,VWS V13.01,2013-06-24 10:36:00,
2013-06-24 06:41:00,75.2,63.1,0.00,WSW,253,4.9,6.7,66,0.00,,---,0.00,VWS V13.01,2013-06-24 10:41:00,
2013-06-24 06:47:00,76.1,63.5,0.00,SW,226,3.1,6.7,65,0.00,,---,0.00,VWS V13.01,2013-06-24 10:47:00,
2013-06-24 06:53:00,77.0,63.5,0.00,WSW,252,2.7,5.4,63,0.00,,---,0.00,VWS V13.01,2013-06-24 10:53:00,
2013-06-24 06:58:00,77.4,63.3,0.00,West,264,4.0,5.8,62,0.00,,---,0.00,VWS V13.01,2013-06-24 10:58:00,
2013-06-24 07:04:00,77.9,63.8,0.00,SW,230,4.0,4.0,62,0.00,,---,0.00,VWS V13.01,2013-06-24 11:04:00,
2013-06-24 07:09:00,78.4,63.9,0.00,WSW,244,3.1,4.0,61,0.00,,---,0.00,VWS V13.01,2013-06-24 11:09:00,
2013-06-24 07:14:00,79.0,63.9,0.00,SW,236,3.6,5.8,60,0.00,,---,0.00,VWS V13.01,2013-06-24 11:14:00,
2013-06-24 07:19:00,79.3,63.8,0.00,WSW,237,3.1,8.3,59,0.00,,---,0.00,VWS V13.01,2013-06-24 11:19:00,
2013-06-24 07:25:00,79.7,64.1,0.00,WSW,241,5.8,5.8,59,0.00,,---,0.00,VWS V13.01,2013-06-24 11:25:00,
2013-06-24 07:30:00,79.9,63.8,0.00,SW,224,3.1,6.3,58,0.00,,---,0.00,VWS V13.01,2013-06-24 11:30:00,
2013-06-24 07:35:00,80.1,64.0,0.00,SW,234,4.9,7.6,58,0.00,,---,0.00,VWS V13.01,2013-06-24 11:35:00,
2013-06-24 07:40:00,80.2,64.1,0.00,SW,225,5.4,5.8,58,0.00,,---,0.00,VWS V13.01,2013-06-24 11:40:00,
2013-06-24 07:45:00,80.6,64.0,0.00,SW,223,4.0,6.3,57,0.00,,---,0.00,VWS V13.01,2013-06-24 11:45:00,
2013-06-24 07:51:00,81.0,64.3,0.00,WSW,256,5.8,8.3,57,0.00,,---,0.00,VWS V13.01,2013-06-24 11:51:00,
2013-06-24 07:56:00,81.3,64.1,0.00,WSW,258,3.6,8.3,56,0.00,,---,0.00,VWS V13.01,2013-06-24 11:56:00,
2013-06-24 08:01:00,81.9,64.6,0.00,WSW,258,3.1,4.0,56,0.00,,---,0.00,VWS V13.01,2013-06-24 12:01:00,
2013-06-24 08:07:00,82.0,64.3,0.00,SW,231,4.9,8.1,55,0.00,,---,0.00,VWS V13.01,2013-06-24 12:07:00,
2013-06-24 08:13:00,80.8,63.6,0.00,West,259,2.7,5.8,56,0.00,,---,0.00,VWS V13.01,2013-06-24 12:13:00,
2013-06-24 08:18:00,80.1,63.5,0.00,WSW,244,2.2,5.8,57,0.00,,---,0.00,VWS V13.01,2013-06-24 12:18:00,
2013-06-24 08:24:00,81.5,64.3,0.00,West,275,5.8,6.3,56,0.00,,---,0.00,VWS V13.01,2013-06-24 12:24:00,
2013-06-24 08:30:00,81.5,63.8,0.00,WSW,251,2.7,2.7,55,0.00,,---,0.00,VWS V13.01,2013-06-24 12:30:00,
2013-06-24 08:35:00,82.0,64.8,0.00,West,268,2.2,5.8,56,0.00,,---,0.00,VWS V13.01,2013-06-24 12:35:00,
2013-06-24 08:41:00,82.2,63.9,0.00,West,262,3.1,4.9,54,0.00,,---,0.00,VWS V13.01,2013-06-24 12:41:00,
2013-06-24 08:46:00,82.8,64.4,0.00,WSW,247,2.7,6.3,54,0.00,,---,0.00,VWS V13.01,2013-06-24 12:46:00,
2013-06-24 08:51:00,83.1,65.3,0.00,SSW,193,3.1,3.1,55,0.00,,---,0.00,VWS V13.01,2013-06-24 12:51:00,
2013-06-24 08:56:00,82.9,64.6,0.00,West,272,3.1,5.8,54,0.00,,---,0.00,VWS V13.01,2013-06-24 12:56:00,
2013-06-24 09:02:00,82.6,63.7,0.00,WSW,237,4.9,7.2,53,0.00,,---,0.00,VWS V13.01,2013-06-24 13:02:00,
2013-06-24 09:07:00,82.0,63.8,0.00,WSW,248,4.9,11.0,54,0.00,,---,0.00,VWS V13.01,2013-06-24 13:07:00,
2013-06-24 09:13:00,81.7,64.0,0.00,WSW,237,2.7,4.9,55,0.00,,---,0.00,VWS V13.01,2013-06-24 13:13:00,
2013-06-24 09:18:00,82.0,63.8,0.00,SW,229,2.7,5.4,54,0.00,,---,0.00,VWS V13.01,2013-06-24 13:18:00,
2013-06-24 09:23:00,81.7,63.4,0.00,SW,219,4.0,6.7,54,0.00,,---,0.00,VWS V13.01,2013-06-24 13:23:00,
2013-06-24 09:29:00,81.5,63.8,0.00,WSW,252,0.0,6.7,55,0.00,,---,0.00,VWS V13.01,2013-06-24 13:29:00,
2013-06-24 09:34:00,81.3,64.1,0.00,WSW,250,2.7,4.9,56,0.00,,---,0.00,VWS V13.01,2013-06-24 13:34:00,
2013-06-24 09:40:00,81.1,64.0,0.00,WSW,247,2.7,8.7,56,0.00,,---,0.00,VWS V13.01,2013-06-24 13:40:00,
2013-06-24 09:46:00,81.0,63.3,0.00,WNW,291,4.0,6.7,55,0.00,,---,0.00,VWS V13.01,2013-06-24 13:46:00,
2013-06-24 09:51:00,80.8,64.1,0.00,WSW,251,4.0,4.0,57,0.00,,---,0.00,VWS V13.01,2013-06-24 13:51:00,
2013-06-24 09:56:00,80.6,64.5,0.00,SW,231,2.7,4.0,58,0.00,,---,0.00,VWS V13.01,2013-06-24 13:56:00,
2013-06-24 10:01:00,80.8,63.6,0.00,West,265,3.1,4.0,56,0.00,,---,0.00,VWS V13.01,2013-06-24 14:01:00,
2013-06-24 10:06:00,81.3,64.7,0.00,West,262,2.7,7.6,57,0.00,,---,0.00,VWS V13.01,2013-06-24 14:06:00,
2013-06-24 10:12:00,81.7,65.0,0.00,WSW,247,0.0,3.6,57,0.00,,---,0.00,VWS V13.01,2013-06-24 14:12:00,
2013-06-24 10:17:00,82.8,65.0,0.00,WSW,254,2.7,5.8,55,0.00,,---,0.00,VWS V13.01,2013-06-24 14:17:00,
2013-06-24 10:22:00,83.8,65.4,0.00,West,267,3.6,3.6,54,0.00,,---,0.00,VWS V13.01,2013-06-24 14:22:00,
2013-06-24 10:29:00,84.7,65.2,0.00,SW,228,6.3,6.3,52,0.00,,---,0.00,VWS V13.01,2013-06-24 14:29:00,
2013-06-24 10:34:00,84.6,64.5,0.00,WSW,238,3.6,6.3,51,0.00,,---,0.00,VWS V13.01,2013-06-24 14:34:00,
2013-06-24 10:39:00,85.1,65.5,0.00,West,263,2.7,6.3,52,0.00,,---,0.00,VWS V13.01,2013-06-24 14:39:00,
2013-06-24 10:44:00,85.1,65.0,0.00,WSW,256,4.0,6.3,51,0.00,,---,0.00,VWS V13.01,2013-06-24 14:44:00,
2013-06-24 10:50:00,84.9,65.3,0.00,WSW,239,4.9,6.3,52,0.00,,---,0.00,VWS V13.01,2013-06-24 14:50:00,
2013-06-24 10:55:00,84.6,65.0,0.00,WSW,250,0.0,3.6,52,0.00,,---,0.00,VWS V13.01,2013-06-24 14:55:00,
2013-06-24 11:02:00,84.4,64.3,0.00,WSW,245,3.1,5.4,51,0.00,,---,0.00,VWS V13.01,2013-06-24 15:02:00,
2013-06-24 11:07:00,85.1,65.0,0.00,WSW,249,3.1,5.4,51,0.00,,---,0.00,VWS V13.01,2013-06-24 15:07:00,
2013-06-24 11:14:00,86.7,65.9,0.00,SW,231,5.4,8.3,50,0.00,,---,0.00,VWS V13.01,2013-06-24 15:14:00,
2013-06-24 11:19:00,87.6,66.7,0.00,WSW,257,2.7,8.3,50,0.00,,---,0.00,VWS V13.01,2013-06-24 15:19:00,
2013-06-24 11:25:00,87.8,65.1,0.00,West,279,3.1,7.6,47,0.00,,---,0.00,VWS V13.01,2013-06-24 15:25:00,
2013-06-24 11:30:00,88.3,65.6,0.00,West,259,3.1,3.1,47,0.00,,---,0.00,VWS V13.01,2013-06-24 15:30:00,
2013-06-24 11:36:00,88.2,64.8,0.00,West,264,3.6,7.6,46,0.00,,---,0.00,VWS V13.01,2013-06-24 15:36:00,
2013-06-24 11:41:00,88.9,65.4,0.00,SW,228,8.7,11.4,46,0.00,,---,0.00,VWS V13.01,2013-06-24 15:41:00,
2013-06-24 11:46:00,89.8,66.3,0.00,West,273,3.6,11.4,46,0.00,,---,0.00,VWS V13.01,2013-06-24 15:46:00,
2013-06-24 11:52:00,90.0,65.8,0.00,SSW,211,8.1,8.1,45,0.00,,---,0.00,VWS V13.01,2013-06-24 15:52:00,
2013-06-24 11:57:00,90.0,63.8,0.00,WSW,241,3.1,12.8,42,0.00,,---,0.00,VWS V13.01,2013-06-24 15:57:00,
2013-06-24 12:02:00,90.3,64.8,0.00,SW,217,8.1,8.1,43,0.00,,---,0.00,VWS V13.01,2013-06-24 16:02:00,
2013-06-24 12:07:00,90.5,65.0,0.00,WSW,244,3.6,8.1,43,0.00,,---,0.00,VWS V13.01,2013-06-24 16:07:00,
2013-06-24 12:12:00,90.1,64.7,0.00,SSW,206,10.1,10.1,43,0.00,,---,0.00,VWS V13.01,2013-06-24 16:12:00,
2013-06-24 12:17:00,90.0,63.8,0.00,WSW,257,10.1,17.0,42,0.00,,---,0.00,VWS V13.01,2013-06-24 16:17:00,
2013-06-24 12:22:00,90.0,63.8,0.00,WSW,243,8.1,8.3,42,0.00,,---,0.00,VWS V13.01,2013-06-24 16:22:00,
2013-06-24 12:27:00,90.0,64.5,0.00,West,279,4.0,8.3,43,0.00,,---,0.00,VWS V13.01,2013-06-24 16:27:00,
2013-06-24 12:33:00,90.0,63.8,0.00,West,266,8.3,8.3,42,0.00,,---,0.00,VWS V13.01,2013-06-24 16:33:00,
2013-06-24 12:38:00,90.1,66.6,0.00,West,273,3.1,8.3,46,0.00,,---,0.00,VWS V13.01,2013-06-24 16:38:00,
2013-06-24 12:43:00,90.3,66.8,0.00,West,267,3.1,3.6,46,0.00,,---,0.00,VWS V13.01,2013-06-24 16:43:00,
2013-06-24 12:50:00,90.5,65.0,0.00,SW,234,8.1,14.1,43,0.00,,---,0.00,VWS V13.01,2013-06-24 16:50:00,
2013-06-24 12:55:00,89.8,63.7,0.00,SW,218,5.8,8.3,42,0.00,,---,0.00,VWS V13.01,2013-06-24 16:55:00,
2013-06-24 13:01:00,88.5,63.2,0.00,SW,219,4.0,10.1,43,0.00,,---,0.00,VWS V13.01,2013-06-24 17:01:00,
2013-06-24 13:06:00,87.8,63.2,0.00,SW,217,3.6,10.1,44,0.00,,---,0.00,VWS V13.01,2013-06-24 17:06:00,
2013-06-24 13:12:00,88.0,64.0,0.00,WSW,252,3.6,5.4,45,0.00,,---,0.00,VWS V13.01,2013-06-24 17:12:00,
2013-06-24 13:17:00,87.6,63.7,0.00,West,261,8.3,9.6,45,0.00,,---,0.00,VWS V13.01,2013-06-24 17:17:00,
2013-06-24 13:22:00,87.4,62.2,0.00,West,259,6.3,6.3,43,0.00,,---,0.00,VWS V13.01,2013-06-24 17:22:00,
2013-06-24 13:27:00,86.9,61.7,0.00,SW,215,6.3,8.1,43,0.00,,---,0.00,VWS V13.01,2013-06-24 17:27:00,
2013-06-24 13:33:00,86.7,61.6,0.00,SW,231,5.4,8.3,43,0.00,,---,0.00,VWS V13.01,2013-06-24 17:33:00,
2013-06-24 13:38:00,86.5,61.4,0.00,WSW,248,2.7,8.3,43,0.00,,---,0.00,VWS V13.01,2013-06-24 17:38:00,
2013-06-24 13:44:00,87.1,62.5,0.00,West,263,5.8,8.7,44,0.00,,---,0.00,VWS V13.01,2013-06-24 17:44:00,
2013-06-24 13:49:00,87.1,61.9,0.00,SW,221,8.1,8.7,43,0.00,,---,0.00,VWS V13.01,2013-06-24 17:49:00,
2013-06-24 13:56:00,87.1,62.5,0.00,SW,223,4.0,12.3,44,0.00,,---,0.00,VWS V13.01,2013-06-24 17:56:00,
2013-06-24 14:01:00,86.7,63.5,0.00,WSW,255,2.7,5.8,46,0.00,,---,0.00,VWS V13.01,2013-06-24 18:01:00,
2013-06-24 14:07:00,86.5,63.9,0.00,West,267,3.1,5.8,47,0.00,,---,0.00,VWS V13.01,2013-06-24 18:07:00,
2013-06-24 14:12:00,86.9,65.5,0.00,WSW,247,2.7,3.6,49,0.00,,---,0.00,VWS V13.01,2013-06-24 18:12:00,
2013-06-24 14:18:00,86.7,64.7,0.00,West,262,0.0,6.3,48,0.00,,---,0.00,VWS V13.01,2013-06-24 18:18:00,
2013-06-24 14:23:00,86.9,66.0,0.00,WNW,289,3.1,4.0,50,0.00,,---,0.00,VWS V13.01,2013-06-24 18:23:00,
2013-06-24 14:28:00,87.1,65.0,0.00,SW,218,3.6,6.3,48,0.00,,---,0.00,VWS V13.01,2013-06-24 18:28:00,
2013-06-24 14:35:00,87.3,64.0,0.00,West,260,8.7,8.7,46,0.00,,---,0.00,VWS V13.01,2013-06-24 18:35:00,
2013-06-24 14:41:00,87.3,63.3,0.00,WSW,247,5.4,6.3,45,0.00,,---,0.00,VWS V13.01,2013-06-24 18:41:00,
2013-06-24 14:46:00,87.4,63.5,0.00,WSW,237,3.6,6.3,45,0.00,,---,0.00,VWS V13.01,2013-06-24 18:46:00,
2013-06-24 14:51:00,87.4,64.1,0.00,West,274,5.4,7.2,46,0.00,,---,0.00,VWS V13.01,2013-06-24 18:51:00,
2013-06-24 14:57:00,86.7,62.2,0.00,SSW,192,10.1,10.1,44,0.00,,---,0.00,VWS V13.01,2013-06-24 18:57:00,
2013-06-24 15:02:00,86.5,62.7,0.00,West,261,6.3,8.7,45,0.00,,---,0.00,VWS V13.01,2013-06-24 19:02:00,
2013-06-24 15:07:00,86.7,62.2,0.00,West,281,5.8,8.7,44,0.00,,---,0.00,VWS V13.01,2013-06-24 19:07:00,
2013-06-24 15:12:00,86.5,60.7,0.00,WNW,284,4.9,11.0,42,0.00,,---,0.00,VWS V13.01,2013-06-24 19:12:00,
2013-06-24 15:17:00,86.4,61.2,0.00,West,259,5.8,11.0,43,0.00,,---,0.00,VWS V13.01,2013-06-24 19:17:00,
2013-06-24 15:23:00,86.2,60.4,0.00,WSW,238,8.3,10.5,42,0.00,,---,0.00,VWS V13.01,2013-06-24 19:23:00,
2013-06-24 15:28:00,86.0,59.6,0.00,SW,214,11.0,14.5,41,0.00,,---,0.00,VWS V13.01,2013-06-24 19:28:00,
2013-06-24 15:33:00,85.6,59.9,0.00,WSW,251,6.3,12.8,42,0.00,,---,0.00,VWS V13.01,2013-06-24 19:33:00,
2013-06-24 15:38:00,85.8,60.1,0.00,WSW,247,8.7,12.8,42,0.00,,---,0.00,VWS V13.01,2013-06-24 19:38:00,
2013-06-24 15:43:00,85.8,60.1,0.00,West,261,4.9,11.0,42,0.00,,---,0.00,VWS V13.01,2013-06-24 19:43:00,
2013-06-24 15:49:00,85.8,59.4,0.00,WSW,246,6.3,12.8,41,0.00,,---,0.00,VWS V13.01,2013-06-24 19:49:00,
2013-06-24 15:56:00,85.6,59.9,0.00,SW,224,8.1,12.8,42,0.00,,---,0.00,VWS V13.01,2013-06-24 19:56:00,
2013-06-24 16:02:00,85.8,60.1,0.00,West,264,9.6,10.1,42,0.00,,---,0.00,VWS V13.01,2013-06-24 20:02:00,
2013-06-24 16:08:00,85.6,59.9,0.00,West,259,7.6,10.1,42,0.00,,---,0.00,VWS V13.01,2013-06-24 20:08:00,
2013-06-24 16:13:00,85.6,59.9,0.00,WSW,245,5.4,10.1,42,0.00,,---,0.00,VWS V13.01,2013-06-24 20:13:00,
2013-06-24 16:18:00,85.6,59.3,0.00,West,263,7.2,10.1,41,0.00,,---,0.00,VWS V13.01,2013-06-24 20:18:00,
2013-06-24 16:24:00,85.5,59.8,0.00,SW,229,4.0,10.1,42,0.00,,---,0.00,VWS V13.01,2013-06-24 20:24:00,
2013-06-24 16:29:00,85.6,61.9,0.00,SW,222,3.6,10.5,45,0.00,,---,0.00,VWS V13.01,2013-06-24 20:29:00,
2013-06-24 16:34:00,85.6,60.6,0.00,SW,229,3.6,7.6,43,0.00,,---,0.00,VWS V13.01,2013-06-24 20:34:00,
2013-06-24 16:39:00,85.6,59.9,0.00,SW,235,5.8,12.3,42,0.00,,---,0.00,VWS V13.01,2013-06-24 20:39:00,
2013-06-24 16:45:00,85.5,59.8,0.00,SW,215,5.8,8.1,42,0.00,,---,0.00,VWS V13.01,2013-06-24 20:45:00,
2013-06-24 16:52:00,85.5,60.4,0.00,SSW,198,8.1,8.1,43,0.00,,---,0.00,VWS V13.01,2013-06-24 20:52:00,
2013-06-24 16:57:00,85.3,59.6,0.00,SSW,209,8.1,8.3,42,0.00,,---,0.00,VWS V13.01,2013-06-24 20:57:00,
2013-06-24 17:03:00,85.1,60.1,0.00,WSW,246,3.6,8.7,43,0.00,,---,0.00,VWS V13.01,2013-06-24 21:03:00,
2013-06-24 17:08:00,85.1,60.1,0.00,WSW,258,8.1,8.7,43,0.00,,---,0.00,VWS V13.01,2013-06-24 21:08:00,
2013-06-24 17:14:00,84.9,59.3,0.00,West,259,6.3,8.3,42,0.00,,---,0.00,VWS V13.01,2013-06-24 21:14:00,
2013-06-24 17:19:00,84.7,60.4,0.00,SW,234,5.8,9.6,44,0.00,,---,0.00,VWS V13.01,2013-06-24 21:19:00,
2013-06-24 17:25:00,84.7,60.4,0.00,SW,225,5.4,10.1,44,0.00,,---,0.00,VWS V13.01,2013-06-24 21:25:00,
2013-06-24 17:30:00,84.6,59.6,0.00,WNW,284,6.3,8.7,43,0.00,,---,0.00,VWS V13.01,2013-06-24 21:30:00,
2013-06-24 17:36:00,84.2,60.0,0.00,WSW,244,3.6,10.1,44,0.00,,---,0.00,VWS V13.01,2013-06-24 21:36:00,
2013-06-24 17:41:00,84.4,60.1,0.00,SW,233,4.0,6.3,44,0.00,,---,0.00,VWS V13.01,2013-06-24 21:41:00,
2013-06-24 17:46:00,84.2,60.0,0.00,WSW,257,8.1,13.6,44,0.00,,---,0.00,VWS V13.01,2013-06-24 21:46:00,
2013-06-24 17:52:00,84.0,60.4,0.00,West,271,3.6,5.8,45,0.00,,---,0.00,VWS V13.01,2013-06-24 21:52:00,
2013-06-24 17:57:00,84.0,61.0,0.00,WSW,251,4.9,6.3,46,0.00,,---,0.00,VWS V13.01,2013-06-24 21:57:00,
2013-06-24 18:03:00,84.0,61.0,0.00,WNW,285,8.3,8.3,46,0.00,,---,0.00,VWS V13.01,2013-06-24 22:03:00,
2013-06-24 18:08:00,83.7,58.8,0.00,West,264,5.4,11.0,43,0.00,,---,0.00,VWS V13.01,2013-06-24 22:08:00,
2013-06-24 18:13:00,83.5,59.3,0.00,SW,232,4.0,8.1,44,0.00,,---,0.00,VWS V13.01,2013-06-24 22:13:00,
2013-06-24 18:18:00,83.3,58.5,0.00,WSW,247,4.0,10.1,43,0.00,,---,0.00,VWS V13.01,2013-06-24 22:18:00,
2013-06-24 18:24:00,83.3,59.1,0.00,SW,220,2.7,8.3,44,0.00,,---,0.00,VWS V13.01,2013-06-24 22:24:00,
2013-06-24 18:29:00,83.1,58.3,0.00,SSW,213,5.4,8.3,43,0.00,,---,0.00,VWS V13.01,2013-06-24 22:29:00,
2013-06-24 18:35:00,83.1,59.0,0.00,West,272,5.4,9.6,44,0.00,,---,0.00,VWS V13.01,2013-06-24 22:35:00,
2013-06-24 18:40:00,82.9,58.8,0.00,SW,227,4.0,10.1,44,0.00,,---,0.00,VWS V13.01,2013-06-24 22:40:00,
2013-06-24 18:46:00,82.8,58.7,0.00,WSW,247,6.3,10.5,44,0.00,,---,0.00,VWS V13.01,2013-06-24 22:46:00,
2013-06-24 18:53:00,82.4,57.7,0.00,WSW,244,2.7,8.3,43,0.00,,---,0.00,VWS V13.01,2013-06-24 22:53:00,
2013-06-24 18:58:00,82.2,58.2,0.00,SW,223,6.3,8.3,44,0.00,,---,0.00,VWS V13.01,2013-06-24 22:58:00,
2013-06-24 19:03:00,82.0,58.0,0.00,WSW,240,6.3,8.7,44,0.00,,---,0.00,VWS V13.01,2013-06-24 23:03:00,
2013-06-24 19:09:00,81.7,57.0,0.00,SW,227,6.3,8.7,43,0.00,,---,0.00,VWS V13.01,2013-06-24 23:09:00,
2013-06-24 19:14:00,81.3,56.7,0.00,WSW,250,6.3,7.6,43,0.00,,---,0.00,VWS V13.01,2013-06-24 23:14:00,
2013-06-24 19:19:00,81.0,56.4,0.00,West,261,8.7,8.7,43,0.00,,---,0.00,VWS V13.01,2013-06-24 23:19:00,
2013-06-24 19:25:00,80.8,56.2,0.00,SW,231,5.4,9.6,43,0.00,,---,0.00,VWS V13.01,2013-06-24 23:25:00,
2013-06-24 19:32:00,80.2,55.7,0.00,SW,223,3.6,7.6,43,0.00,,---,0.00,VWS V13.01,2013-06-24 23:32:00,
2013-06-24 19:37:00,80.1,56.2,0.00,WSW,246,5.4,8.3,44,0.00,,---,0.00,VWS V13.01,2013-06-24 23:37:00,
2013-06-24 19:42:00,79.9,56.0,0.00,SW,228,4.9,9.6,44,0.00,,---,0.00,VWS V13.01,2013-06-24 23:42:00,
2013-06-24 19:47:00,79.5,56.3,0.00,SW,233,4.0,9.6,45,0.00,,---,0.00,VWS V13.01,2013-06-24 23:47:00,
2013-06-24 19:53:00,79.3,56.2,0.00,SSW,210,4.0,7.6,45,0.00,,---,0.00,VWS V13.01,2013-06-24 23:53:00,
2013-06-24 19:59:00,79.0,56.5,0.00,West,268,3.1,8.7,46,0.00,,---,0.00,VWS V13.01,2013-06-24 23:59:00,
2013-06-24 20:04:00,78.6,56.7,0.00,WSW,250,0.0,3.6,47,0.00,,---,0.00,VWS V13.01,2013-06-25 00:04:00,
2013-06-24 20:09:00,78.3,57.5,0.00,WSW,239,0.0,5.4,49,0.00,,---,0.00,VWS V13.01,2013-06-25 00:09:00,
2013-06-24 20:15:00,77.9,57.8,0.00,WSW,237,0.0,3.1,50,0.00,,---,0.00,VWS V13.01,2013-06-25 00:15:00,
2013-06-24 20:20:00,77.5,58.0,0.00,WSW,237,0.0,3.1,51,0.00,,---,0.00,VWS V13.01,2013-06-25 00:20:00,
2013-06-24 20:25:00,77.4,57.8,0.00,West,263,2.2,4.0,51,0.00,,---,0.00,VWS V13.01,2013-06-25 00:25:00,
2013-06-24 20:31:00,77.0,57.5,0.00,WSW,258,0.0,0.0,51,0.00,,---,0.00,VWS V13.01,2013-06-25 00:31:00,
2013-06-24 20:36:00,76.6,58.2,0.00,SW,234,0.0,4.0,53,0.00,,---,0.00,VWS V13.01,2013-06-25 00:36:00,
2013-06-24 20:42:00,76.3,57.9,0.00,SW,222,2.7,7.2,53,0.00,,---,0.00,VWS V13.01,2013-06-25 00:42:00,
2013-06-24 20:48:00,75.9,57.6,0.00,SW,220,2.7,7.2,53,0.00,,---,0.00,VWS V13.01,2013-06-25 00:48:00,
2013-06-24 20:54:00,75.7,57.4,0.00,WSW,238,5.4,7.2,53,0.00,,---,0.00,VWS V13.01,2013-06-25 00:54:00,
2013-06-24 20:59:00,75.6,57.2,0.00,SW,235,0.0,7.2,53,0.00,,---,0.00,VWS V13.01,2013-06-25 00:59:00,
2013-06-24 21:05:00,75.4,57.6,0.00,SW,225,0.0,5.8,54,0.00,,---,0.00,VWS V13.01,2013-06-25 01:05:00,
2013-06-24 21:10:00,75.2,57.4,0.00,West,261,3.1,3.1,54,0.00,,---,0.00,VWS V13.01,2013-06-25 01:10:00,
2013-06-24 21:15:00,75.0,57.8,0.00,SW,232,3.6,6.3,55,0.00,,---,0.00,VWS V13.01,2013-06-25 01:15:00,
2013-06-24 21:21:00,75.0,57.8,0.00,WSW,253,3.1,3.6,55,0.00,,---,0.00,VWS V13.01,2013-06-25 01:21:00,
2013-06-24 21:27:00,74.8,57.6,0.00,SW,229,2.7,5.8,55,0.00,,---,0.00,VWS V13.01,2013-06-25 01:27:00,
2013-06-24 21:32:00,74.5,57.8,0.00,WSW,245,2.7,4.0,56,0.00,,---,0.00,VWS V13.01,2013-06-25 01:32:00,
2013-06-24 21:37:00,74.3,58.1,0.00,SW,233,2.7,7.6,57,0.00,,---,0.00,VWS V13.01,2013-06-25 01:37:00,
2013-06-24 21:43:00,74.1,57.9,0.00,WSW,237,3.1,5.4,57,0.00,,---,0.00,VWS V13.01,2013-06-25 01:43:00,
2013-06-24 21:48:00,73.9,58.2,0.00,WSW,243,5.4,5.4,58,0.00,,---,0.00,VWS V13.01,2013-06-25 01:48:00,
2013-06-24 21:53:00,73.9,58.2,0.00,WSW,239,2.7,7.2,58,0.00,,---,0.00,VWS V13.01,2013-06-25 01:53:00,
2013-06-24 21:59:00,73.9,58.2,0.00,SW,235,3.1,7.2,58,0.00,,---,0.00,VWS V13.01,2013-06-25 01:59:00,
2013-06-24 22:04:00,73.8,58.5,0.00,WSW,255,4.0,6.3,59,0.00,,---,0.00,VWS V13.01,2013-06-25 02:04:00,
2013-06-24 22:10:00,73.8,58.5,0.00,West,270,0.0,7.2,59,0.00,,---,0.00,VWS V13.01,2013-06-25 02:10:00,
2013-06-24 22:16:00,73.8,58.5,0.00,West,263,2.7,5.8,59,0.00,,---,0.00,VWS V13.01,2013-06-25 02:16:00,
2013-06-24 22:21:00,73.6,58.8,0.00,SW,230,4.0,5.8,60,0.00,,---,0.00,VWS V13.01,2013-06-25 02:21:00,
2013-06-24 22:26:00,73.4,58.7,0.00,SW,234,2.7,5.8,60,0.00,,---,0.00,VWS V13.01,2013-06-25 02:26:00,
2013-06-24 22:33:00,73.2,59.0,0.00,WSW,252,3.6,3.6,61,0.00,,---,0.00,VWS V13.01,2013-06-25 02:33:00,
2013-06-24 22:39:00,73.2,59.0,0.00,WSW,253,2.2,5.8,61,0.00,,---,0.00,VWS V13.01,2013-06-25 02:39:00,
2013-06-24 22:45:00,73.0,59.3,0.00,WSW,251,0.0,4.5,62,0.00,,---,0.00,VWS V13.01,2013-06-25 02:45:00,
2013-06-24 22:50:00,72.7,58.9,0.00,WSW,240,0.0,3.1,62,0.00,,---,0.00,VWS V13.01,2013-06-25 02:50:00,
2013-06-24 22:55:00,72.7,58.9,0.00,WSW,249,0.0,5.8,62,0.00,,---,0.00,VWS V13.01,2013-06-25 02:55:00,
2013-06-24 23:00:00,72.3,59.0,0.00,West,264,2.7,2.7,63,0.00,,---,0.00,VWS V13.01,2013-06-25 03:00:00,
2013-06-24 23:05:00,72.0,59.1,0.00,SW,235,2.7,4.0,64,0.00,,---,0.00,VWS V13.01,2013-06-25 03:05:00,
2013-06-24 23:11:00,71.8,59.4,0.00,WSW,253,0.0,4.0,65,0.00,,---,0.00,VWS V13.01,2013-06-25 03:11:00,
2013-06-24 23:16:00,71.6,59.7,0.00,WSW,244,3.1,5.8,66,0.00,,---,0.00,VWS V13.01,2013-06-25 03:16:00,
2013-06-24 23:22:00,71.6,59.7,0.00,WSW,249,0.0,4.0,66,0.00,,---,0.00,VWS V13.01,2013-06-25 03:22:00,
2013-06-24 23:27:00,71.4,59.5,0.00,SW,236,4.0,5.4,66,0.00,,---,0.00,VWS V13.01,2013-06-25 03:27:00,
2013-06-24 23:33:00,71.4,59.5,0.00,WSW,254,0.0,4.0,66,0.00,,---,0.00,VWS V13.01,2013-06-25 03:33:00,
2013-06-24 23:38:00,71.4,59.5,0.00,West,263,0.0,4.0,66,0.00,,---,0.00,VWS V13.01,2013-06-25 03:38:00,
2013-06-24 23:44:00,71.4,59.9,0.00,West,264,5.4,5.4,67,0.00,,---,0.00,VWS V13.01,2013-06-25 03:44:00,
2013-06-24 23:50:00,71.2,59.7,0.00,WSW,244,0.0,6.3,67,0.00,,---,0.00,VWS V13.01,2013-06-25 03:50:00,
2013-06-24 23:55:00,71.1,60.0,0.00,WSW,252,0.0,5.4,68,0.00,,---,0.00,VWS V13.01,2013-06-25 03:55:00,